This is the latest recevied weather packets stored in our database for station/object N0QV. If no packets are shown the sender has not sent any weather packets the latest 10 day(s).
| Time | Temp. | Humidity | Pressure | Rain* | Wind** | Luminosity | Snow |
|---|---|---|---|---|---|---|---|
| 1777867241 | 10° C | 60% | 1004.3 hPa | 0 mm | - | 0 W/m² | - |
| 1777866938 | 10.56° C | 56% | 1004.4 hPa | 0 mm | - | 0 W/m² | - |
| 1777866634 | 10° C | 61% | 1004.5 hPa | 0 mm | - | 0 W/m² | - |
| 1777866332 | 10° C | 61% | 1004.4 hPa | 0 mm | - | 0 W/m² | - |
| 1777866029 | 10° C | 54% | 1004.6 hPa | 0 mm | - | 0 W/m² | - |
| 1777865727 | 10° C | 56% | 1004.9 hPa | 0 mm | - | 0 W/m² | - |
| 1777865424 | 10.56° C | 59% | 1004.7 hPa | 0 mm | - | 0 W/m² | - |
| 1777865121 | 10.56° C | 59% | 1005 hPa | 0 mm | - | 0 W/m² | - |
| 1777864818 | 10.56° C | 56% | 1004.9 hPa | 0 mm | - | 0 W/m² | - |
| 1777864515 | 10.56° C | 55% | 1005 hPa | 0 mm | - | 0 W/m² | - |
| 1777864211 | 10.56° C | 53% | 1005.2 hPa | 0 mm | - | 0 W/m² | - |
| 1777863909 | 11.11° C | 51% | 1005.2 hPa | 0 mm | - | 0 W/m² | - |
| 1777863604 | 11.67° C | 51% | 1005.1 hPa | 0 mm | - | 0 W/m² | - |
| 1777863301 | 11.67° C | 49% | 1005.2 hPa | 0 mm | - | 0 W/m² | - |
| 1777862998 | 12.22° C | 46% | 1005.3 hPa | 0 mm | - | 0 W/m² | - |
| 1777862695 | 12.22° C | 51% | 1005.3 hPa | 0 mm | - | 0 W/m² | - |
| 1777862392 | 11.67° C | 52% | 1005.3 hPa | 0 mm | - | 0 W/m² | - |
| 1777862089 | 11.67° C | 49% | 1005.1 hPa | 0 mm | - | 0 W/m² | - |
| 1777861784 | 12.22° C | 51% | 1005.1 hPa | 0 mm | - | 0 W/m² | - |
| 1777861481 | 12.78° C | 53% | 1005.3 hPa | 0 mm | - | 0 W/m² | - |
| 1777861177 | 13.33° C | 51% | 1005.3 hPa | 0 mm | - | 0 W/m² | - |
| 1777860875 | 13.33° C | 53% | 1005.2 hPa | 0 mm | - | 0 W/m² | - |
| 1777860572 | 13.89° C | 50% | 1005.5 hPa | 0 mm | - | 0 W/m² | - |
| 1777860268 | 14.44° C | 52% | 1005.3 hPa | 0 mm | - | 0 W/m² | - |
| 1777859965 | 15° C | 39% | 1005.3 hPa | 0 mm | - | 0 W/m² | - |
* Rain latest hour (hover to see other rain measurements)
** Current wind speed in m/s (hover to see current wind gust speed)